DW1774 Weather Reports


time (UTC)temp
F
wind
direction
speed
knots
gust
knots
rain 1hr
in
rain 24hr
in
rain mn
in
humidity
%
barometer
mb
20260903185404 95 122 2.6 11.3 0.00 0.00 0.00 64 1012.8
20260903183404 96 51 2.6 5.2 0.00 0.00 0.00 64 1013.0
20260903182904 96 131 1.7 6.1 0.00 0.00 0.00 63 1013.0
20260903182405 96 113 2.6 6.1 0.00 0.00 0.00 63 1013.0
20260903181904 96 60 1.7 5.2 0.00 0.00 0.00 65 1013.1
20260903181403 95 71 2.6 5.2 0.00 0.00 0.00 64 1013.2
20260903180905 95 150 0.9 4.3 0.00 0.00 0.00 64 1013.2
20260903175905 94 133 0.9 2.6 0.00 0.00 0.00 65 1013.6
20260903175404 94 122 0.0 5.2 0.00 0.00 0.00 64 1013.7
20260903174904 94 119 2.6 5.2 0.00 0.00 0.00 64 1013.8
20260903174404 94 118 0.9 4.3 0.00 0.00 0.00 64 1013.8
20260903173904 94 148 0.9 5.2 0.00 0.00 0.00 65 1013.8
20260903173404 94 152 1.7 5.2 0.00 0.00 0.00 67 1013.7
20260903172904 93 161 0.0 5.2 0.00 0.00 0.00 67 1013.8
20260903172403 93 174 2.6 5.2 0.00 0.00 0.00 67 1013.9
20260903171905 93 165 1.7 6.1 0.00 0.00 0.00 68 1014.0
20260903171404 93 164 0.9 6.1 0.00 0.00 0.00 68 1014.0
20260903170404 92 161 1.7 5.2 0.00 0.00 0.00 69 1014.2
20260903165904 92 240 0.9 4.3 0.00 0.00 0.00 71 1014.3
20260903165404 91 213 2.6 4.3 0.00 0.00 0.00 72 1014.3
20260903164904 90 189 0.9 6.1 0.00 0.00 0.00 76 1014.4
20260903164403 90 168 1.7 6.1 0.00 0.00 0.00 76 1014.3
20260903163903 89 238 0.9 6.1 0.00 0.00 0.00 78 1014.2
20260903163404 88 189 1.7 6.1 0.00 0.00 0.00 80 1014.2
20260903162904 87 207 0.0 4.3 0.00 0.00 0.00 83 1014.1
20260903162404 86 208 1.7 4.3 0.00 0.00 0.00 83 1014.0
20260903161404 84 269 0.0 0.0 0.00 0.00 0.00 86 1013.9
20260903160904 84 269 0.0 0.0 0.00 0.00 0.00 87 1013.9
20260903160403 83 269 0.0 0.0 0.00 0.00 0.00 87 1013.9
20260903155904 83 269 0.0 0.0 0.00 0.00 0.00 88 1014.0
20260903155404 83 269 0.0 0.0 0.00 0.00 0.00 88 1014.0
20260903154904 82 269 0.0 0.0 0.00 0.00 0.00 88 1014.0
20260903154404 82 269 0.0 0.0 0.00 0.00 0.00 88 1014.1
20260903153904 82 269 0.0 0.0 0.00 0.00 0.00 88 1013.9
20260903153404 81 269 0.0 0.0 0.00 0.00 0.00 87 1014.0
20260903152404 81 269 0.0 0.0 0.00 0.00 0.00 86 1014.0
20260903151903 81 269 0.0 0.0 0.00 0.00 0.00 86 1014.0
20260903150904 80 269 0.0 0.9 0.00 0.00 0.00 85 1013.8
20260903150405 80 164 0.0 0.0 0.00 0.00 0.00 85 1013.9
20260903145905 80 164 0.0 0.0 0.00 0.00 0.00 86 1014.0
20260903145404 80 164 0.0 0.0 0.00 0.00 0.00 86 1014.0
20260903144904 80 164 0.0 0.0 0.00 0.00 0.00 86 1013.9
20260903144403 80 164 0.0 0.0 0.00 0.00 0.00 86 1013.9
20260903143404 80 164 0.0 0.0 0.00 0.00 0.00 85 1013.9
20260903142905 80 164 0.0 0.0 0.00 0.00 0.00 85 1013.9
20260903142403 80 164 0.0 0.0 0.00 0.00 0.00 85 1014.0
20260903141903 80 164 0.0 0.0 0.00 0.00 0.00 85 1014.1
20260903141405 80 164 0.0 0.0 0.00 0.00 0.00 84 1014.3
20260903140904 80 164 0.0 0.0 0.00 0.00 0.00 84 1014.3
20260903135904 80 164 0.0 0.0 0.00 0.00 0.00 84 1014.2
20260903135404 80 164 0.0 0.0 0.00 0.00 0.00 85 1014.1
20260903134904 80 164 0.0 0.0 0.00 0.00 0.00 84 1014.0
20260903134404 80 164 0.0 0.0 0.00 0.00 0.00 84 1014.1
20260903133904 80 164 0.0 0.0 0.00 0.00 0.00 84 1014.1
20260903133404 80 164 0.0 0.0 0.00 0.00 0.00 84 1014.2
20260903132904 81 164 0.0 0.9 0.00 0.00 0.00 84 1014.3
20260903132403 81 164 0.0 0.9 0.00 0.00 0.00 83 1014.3
20260903131404 81 164 0.9 4.3 0.00 0.00 0.00 83 1014.2
20260903130405 81 164 0.9 5.2 0.00 0.00 0.00 82 1014.1
20260903125405 81 162 1.7 11.3 0.00 0.00 0.00 83 1014.0
20260903124404 82 188 3.5 11.3 0.00 0.00 0.00 88 1013.9
20260903123905 82 161 4.3 11.3 0.00 0.00 0.00 90 1013.7
20260903123403 82 207 0.9 2.6 0.00 0.00 0.00 89 1013.7
20260903122904 83 207 0.9 1.7 0.00 0.00 0.00 89 1013.5
20260903122404 83 207 0.0 0.0 0.00 0.00 0.00 89 1013.5
20260903121904 83 207 0.0 0.0 0.00 0.00 0.00 89 1013.3
20260903121404 83 207 0.0 0.0 0.00 0.00 0.00 89 1013.2
20260903120903 83 207 0.0 0.0 0.00 0.00 0.00 89 1013.1
20260903120404 83 207 0.0 0.0 0.00 0.00 0.00 89 1013.2
20260903115904 83 207 0.0 0.0 0.00 0.00 0.00 89 1013.3
20260903114904 83 207 0.0 0.9 0.00 0.00 0.00 89 1013.2
20260903114404 83 207 0.0 0.9 0.00 0.00 0.00 89 1013.1
20260903113904 83 207 0.0 1.7 0.00 0.00 0.00 89 1013.2
20260903113404 83 207 0.9 1.7 0.00 0.00 0.00 89 1013.2
20260903112904 83 206 0.0 4.3 0.00 0.00 0.00 89 1013.1
20260903112404 83 169 0.9 4.3 0.00 0.00 0.00 88 1013.1
20260903111404 83 167 0.0 2.6 0.00 0.00 0.00 88 1013.0
20260903110904 83 165 0.0 1.7 0.00 0.00 0.00 88 1012.9
20260903110404 83 165 0.9 4.3 0.00 0.00 0.00 88 1012.9
20260903105904 83 163 0.0 4.3 0.00 0.00 0.00 88 1012.9
20260903105404 83 163 0.9 4.3 0.00 0.00 0.00 88 1012.8
20260903104904 83 163 0.0 1.7 0.00 0.00 0.00 88 1012.8
20260903104404 83 163 0.0 1.7 0.00 0.00 0.00 88 1012.8
20260903103904 83 163 0.9 4.3 0.00 0.00 0.00 88 1012.8
20260903103404 83 162 1.7 4.3 0.00 0.00 0.00 88 1012.8
20260903102904 83 161 0.9 4.3 0.00 0.00 0.00 88 1012.8
20260903102404 83 161 0.0 1.7 0.00 0.00 0.00 88 1012.8
20260903101904 83 161 0.0 1.7 0.00 0.00 0.00 88 1012.7
20260903101404 83 161 0.0 1.7 0.00 0.00 0.00 88 1012.7
20260903100904 83 160 0.9 1.7 0.00 0.00 0.00 87 1012.6
20260903100405 83 160 0.9 2.6 0.00 0.00 0.00 87 1012.6
20260903095904 83 157 0.0 2.6 0.00 0.00 0.00 87 1012.6
20260903094903 83 151 1.7 4.3 0.00 0.00 0.00 87 1012.5
20260903094404 83 161 0.9 4.3 0.00 0.00 0.00 87 1012.5
20260903093903 83 163 1.7 4.3 0.00 0.00 0.00 87 1012.6
20260903092904 83 162 1.7 5.2 0.00 0.00 0.00 87 1012.7
20260903092404 83 144 0.9 5.2 0.00 0.00 0.00 87 1012.7
20260903091404 83 163 1.7 5.2 0.00 0.00 0.00 87 1012.8
20260903090404 83 148 2.6 5.2 0.00 0.00 0.00 87 1012.9
20260903085904 83 168 2.6 4.3 0.00 0.00 0.00 87 1012.8
20260903085404 83 172 1.7 2.6 0.00 0.00 0.00 87 1012.8
20260903084404 83 167 0.9 4.3 0.00 0.00 0.00 87 1012.7
20260903083904 83 161 1.7 4.3 0.00 0.00 0.00 87 1012.7
20260903083404 83 178 2.6 4.3 0.00 0.00 0.00 87 1012.7
20260903082903 83 184 1.7 4.3 0.00 0.00 0.00 87 1012.7
20260903082404 83 146 1.7 6.1 0.00 0.00 0.00 87 1012.6
20260903081404 83 162 1.7 6.1 0.00 0.00 0.00 87 1012.6
20260903080403 83 157 0.0 5.2 0.00 0.00 0.00 87 1012.5
20260903075904 83 161 0.9 4.3 0.00 0.00 0.00 87 1012.5
20260903075404 83 160 1.7 4.3 0.00 0.00 0.00 87 1012.4
20260903074904 83 184 1.7 7.0 0.00 0.00 0.00 87 1012.4
20260903073905 83 167 2.6 7.0 0.00 0.00 0.00 87 1012.5
20260903073405 83 168 2.6 5.2 0.00 0.00 0.00 87 1012.4
20260903072903 83 156 1.7 6.1 0.00 0.00 0.00 86 1012.4
20260903072404 83 160 2.6 6.1 0.00 0.00 0.00 87 1012.5
20260903071904 83 154 1.7 6.1 0.00 0.00 0.00 87 1012.6
20260903070905 83 167 0.9 7.0 0.00 0.00 0.00 87 1012.7
20260903070404 83 156 6.1 7.0 0.00 0.00 0.00 87 1012.7
20260903065403 83 182 2.6 7.0 0.00 0.00 0.00 87 1012.8
20260903064903 83 133 0.9 5.2 0.00 0.00 0.00 87 1013.0
20260903063904 83 173 1.7 5.2 0.00 0.00 0.00 86 1012.9
20260903063404 83 159 1.7 5.2 0.00 0.00 0.00 86 1013.0
20260903062904 83 161 1.7 5.2 0.00 0.00 0.00 86 1013.0
20260903062404 83 159 1.7 5.2 0.00 0.00 0.00 86 1013.1
20260903061905 83 155 1.7 2.6 0.00 0.00 0.00 86 1013.2
20260903061404 84 151 0.9 2.6 0.00 0.00 0.00 85 1013.3
20260903060904 84 140 0.9 4.3 0.00 0.00 0.00 85 1013.3
20260903060404 84 165 0.9 4.3 0.00 0.00 0.00 85 1013.5
20260903055905 84 165 0.9 1.7 0.00 0.00 0.00 85 1013.7
20260903055403 84 165 0.9 1.7 0.00 0.00 0.00 84 1013.7
20260903054905 84 165 0.9 4.3 0.00 0.00 0.00 84 1013.6
20260903054405 84 165 1.7 4.3 0.00 0.00 0.00 84 1013.7
20260903053405 84 165 0.9 2.6 0.00 0.00 0.00 84 1013.5
20260903052904 84 158 1.7 2.6 0.00 0.00 0.00 84 1013.5
20260903052404 84 153 0.0 4.3 0.00 0.00 0.00 84 1013.6
20260903051904 84 152 1.7 4.3 0.00 0.00 0.00 84 1013.6
20260903051404 84 128 0.9 2.6 0.00 0.00 0.00 84 1013.6
20260903050405 84 148 1.7 4.3 0.00 0.24 0.00 83 1013.5
20260903045403 84 157 1.7 4.3 0.00 1.23 0.00 83 1013.6
20260903044404 84 145 0.0 2.6 0.00 2.22 0.00 83 1013.9
20260903043904 84 144 0.9 4.3 0.00 2.82 0.00 83 1013.9
20260903043404 85 144 0.9 4.3 0.00 3.36 0.00 83 1014.0
20260903042904 85 137 1.7 4.3 0.00 3.75 0.00 83 1013.9
20260903041404 85 148 1.7 5.2 0.00 5.10 0.00 83 1013.8
20260903040904 85 149 1.7 5.2 0.00 5.52 0.00 83 1013.9
20260903035903 85 140 0.9 4.3 0.00 6.51 0.00 83 1014.0
20260903035404 85 148 1.7 4.3 0.00 6.99 0.00 82 1014.0
20260903034904 85 142 1.7 6.1 0.00 7.53 0.00 82 1014.0
20260903034404 85 138 1.7 6.1 0.00 8.13 0.00 82 1013.9
20260903032904 85 128 1.7 6.1 0.00 9.69 0.00 82 1013.6
20260903031405 85 146 0.0 2.6 0.00 1.11 0.00 82 1013.8
20260903030903 85 145 0.9 6.1 0.00 1.17 0.00 82 1013.7
20260903030403 85 157 1.7 6.1 0.00 1.22 0.00 83 1013.6
20260903025904 85 122 1.7 5.2 0.00 1.27 0.00 83 1013.4
20260903025405 85 148 1.7 7.0 0.00 1.33 0.00 83 1013.2
20260903024904 85 129 4.3 7.0 0.00 1.39 0.00 83 1013.2
20260903024404 85 141 1.7 7.0 0.00 1.45 0.00 83 1013.0
20260903023904 85 157 2.6 7.0 0.00 1.51 0.00 83 1013.0
20260903023405 85 145 2.6 7.0 0.00 1.55 0.00 83 1013.0
20260903021904 85 144 4.3 7.8 0.00 1.71 0.00 83 1012.6
20260903021404 85 127 2.6 6.1 0.00 1.76 0.00 83 1012.7
20260903020404 85 140 2.6 7.8 0.00 1.89 0.00 83 1012.6
20260903015903 86 161 3.5 7.8 0.00 1.93 0.00 83 1012.6
20260903015404 86 150 2.6 7.0 0.00 1.99 0.00 82 1012.6
20260903014904 86 145 2.6 7.0 0.00 2.05 0.00 82 1012.6
20260903013904 86 140 2.6 8.7 0.00 2.14 0.00 82 1012.6
20260903013403 86 155 4.3 8.7 0.00 2.19 0.00 82 1012.5
20260903012904 86 177 5.2 10.4 0.00 2.24 0.00 81 1012.4
20260903011903 86 150 3.5 7.8 0.00 2.33 0.00 80 1012.5
20260903011405 86 169 4.3 7.8 0.00 2.38 0.00 80 1012.4
20260903010904 87 163 2.6 7.8 0.00 2.43 0.00 80 1012.2
20260903010404 87 148 4.3 8.7 0.00 2.49 0.00 79 1012.1
20260903005904 87 159 2.6 8.7 0.00 2.54 0.00 78 1012.1
20260903005404 87 149 2.6 7.8 0.00 2.59 0.00 78 1012.1
20260903004905 87 181 2.6 8.7 0.00 2.64 0.00 77 1012.1
20260903004404 87 158 5.2 10.4 0.00 2.70 0.00 77 1012.3
20260903003904 88 160 2.6 10.4 0.00 2.75 0.00 76 1012.3
20260903003403 88 165 4.3 8.7 0.00 2.79 0.00 76 1012.3
20260903002904 88 169 4.3 8.7 0.00 2.83 0.00 75 1012.2
20260903002405 88 175 5.2 8.7 0.00 2.91 0.00 74 1012.1
20260903001904 89 146 2.6 8.7 0.00 2.96 0.00 73 1011.8
20260903001404 89 166 4.3 8.7 0.00 3.01 0.00 72 1011.5
20260903000405 89 149 2.6 11.3 0.00 3.13 0.00 71 1011.4
20260902235904 90 139 4.3 11.3 0.00 3.17 0.00 70 1011.4
20260902235404 90 161 4.3 10.4 0.00 3.24 0.00 69 1011.5
20260902234904 90 169 5.2 12.2 0.00 3.29 0.00 68 1011.5
20260902234403 90 159 7.8 12.2 0.00 3.36 0.00 67 1011.6
20260902233403 91 150 4.3 8.7 0.00 3.48 0.00 67 1011.7
20260902232904 91 129 4.3 12.2 0.00 3.54 0.00 66 1011.7
20260902232405 92 131 6.1 12.2 0.00 3.60 0.00 65 1011.6
20260902231905 92 134 6.1 13.0 0.00 3.65 0.00 65 1011.6
20260902231404 92 157 4.3 13.0 0.00 3.72 0.00 65 1011.6
20260902230904 93 151 7.8 11.3 0.00 3.77 0.00 64 1011.5
20260902230404 94 164 3.5 11.3 0.00 3.81 0.00 64 1011.5
20260902225903 94 166 6.1 12.2 0.00 3.87 0.00 63 1011.5
20260902225404 94 143 8.7 12.2 0.00 3.90 0.00 62 1011.4
20260902224904 95 142 6.1 14.8 0.00 3.95 0.00 62 1011.4
20260902223904 96 180 6.1 13.9 0.00 4.05 0.00 59 1011.4
20260902223404 96 165 4.3 13.9 0.00 4.11 0.00 59 1011.4
20260902222405 97 200 4.3 17.4 0.00 4.23 0.00 58 1011.5
20260902221905 97 161 5.2 17.4 0.00 4.29 0.00 58 1011.5
20260902221404 97 159 4.3 14.8 0.00 4.35 0.00 59 1011.5
20260902220904 97 167 4.3 13.0 0.00 4.40 0.00 59 1011.5
20260902215904 97 160 7.0 13.9 0.00 4.49 0.00 61 1011.5
20260902214405 95 141 12.2 12.2 0.00 4.65 0.00 63 1011.5
20260902213904 95 152 5.2 11.3 0.00 4.69 0.00 64 1011.5
20260902212904 95 156 6.1 11.3 0.00 4.76 0.00 63 1011.6
20260902212404 95 108 6.1 10.4 0.00 4.81 0.00 62 1011.6
20260902211903 95 158 3.5 12.2 0.00 4.84 0.00 63 1011.7
20260902211404 96 163 5.2 12.2 0.00 4.88 0.00 62 1011.8
20260902210905 96 167 6.1 12.2 0.00 4.92 0.00 61 1011.9
20260902210405 97 128 5.2 12.2 0.00 4.95 0.00 61 1011.8
20260902205404 98 152 5.2 12.2 0.00 5.03 0.00 58 1011.8
20260902204904 98 179 1.7 7.0 0.00 5.05 0.00 54 1011.8
20260902204404 99 149 2.6 10.4 0.00 5.07 0.00 54 1011.9
20260902203904 99 185 2.6 10.4 0.00 5.12 0.00 54 1011.9
20260902203405 100 178 3.5 8.7 0.00 5.16 0.00 54 1012.1
20260902202905 100 117 0.9 11.3 0.00 5.19 0.00 54 1012.1
20260902202404 100 205 4.3 11.3 0.00 5.22 0.00 53 1012.2
20260902201904 100 167 5.2 11.3 0.00 5.26 0.00 53 1012.2
20260902201404 100 196 2.6 11.3 0.00 5.29 0.00 54 1012.3
20260902200904 99 173 4.3 11.3 0.00 5.33 0.00 54 1012.4
20260902195905 99 180 2.6 7.8 0.00 5.41 0.00 55 1012.6
20260902195404 98 156 3.5 7.0 0.00 5.42 0.00 56 1012.7
20260902194904 98 200 3.5 7.0 0.00 5.46 0.00 54 1012.7
20260902194404 98 191 2.6 7.0 0.00 5.50 0.00 57 1012.8
20260902193403 98 197 1.7 6.1 0.00 5.57 0.00 57 1012.8
20260902192904 97 211 0.9 7.8 0.00 5.60 0.00 58 1012.9
20260902192405 97 229 1.7 7.8 0.00 5.62 0.00 58 1012.9
20260902191904 97 193 3.5 6.1 0.00 5.65 0.00 56 1012.9
20260902191405 96 208 2.6 10.4 0.00 5.67 0.00 57 1012.9
20260902190904 96 203 3.5 10.4 0.00 5.69 0.00 57 1013.0